Regional Weather Roundup
Issued by NWS

Home | Current Version | Previous Version | Text Only | Print | Product List | Glossary On
Versions: 1 2 3 4 5 6 7 8 9 10 11 12 13 14 15 16 17 18 19 20 21 22 23 24 25 26 27 28 29 30 31 32 33 34 35 36 37 38 39 40 41 42 43 44 45 46 47 48 49 50
520
ASUS42 KKEY 050510
RWRKEY

FLORIDA REGIONAL WEATHER ROUNDUP FOR THE FLORIDA KEYS
NATIONAL WEATHER SERVICE KEY WEST FLORIDA
100 AM EDT THU MAY 05 2016

...SOUTH FLORIDA AND THE KEYS...

CITY           SKY/WX    TMP DP  RH WIND       PRES   REMARKS
FORT MYERS     PTCLDY    71  63  75 NW8       29.75S
SW REGIONAL AP PTCLDY    70  64  81 NW3       29.76R
NAPLES         PTCLDY    75  63  66 NW14G25   29.76S
MIAMI          CLOUDY    73  71  93 W10       29.73F
WEST KENDALL   CLOUDY    73  72  96 W14       29.73F
HOMESTEAD      LGT RAIN  72  70  93 W9        29.72
MARATHON       CLOUDY    79  71  76 SW13G23   29.74F
BOCA CHICA NAS CLOUDY    76  72  87 NW20      29.77S
KEY WEST INTL  CLOUDY    73  73 100 NW17      29.78S

...INTERNATIONAL WEATHER...

CITY           SKY/WX    TMP DP  RH WIND       PRES   REMARKS
NASSAU BAHAMAS LGT RAIN  75  75 100 S9        29.78F
CANCUN MEXICO  MOCLDY    75  75 100 NW6       29.90F
COZUMEL MEXICO PTCLDY    75  73  94 N8        29.90F

ADJACENT COASTAL WATERS...

STATION/POSITION TIME  SKY/WX   TEMP    WIND        PRES    WAVE
                                AIR SEA DIR/SP/G            HT/PER
                 (UTC)          (F)     (DEG/KT/KT) (MB)    (FT/S)
PULASKI SHOAL LI 0500            78     340/ 18/ 20 1009.1F
SAND KEY         0450            76     290/ 21/ 29 1009.1R
SOMBRERO KEY     NOT AVBL
LONG KEY         0400            80 82  240/ 23/ 27 1007.8R
MOLASSES REEF    NOT AVBL
FOWEY ROCKS      NOT AVBL

$$




USA.gov is the U.S. government's official web portal to all federal, state and local government web resources and services.